TimeEET,TemperatureF,Dew PointF,Humidity,Sea Level PressureIn,VisibilityMPH,Wind Direction,Wind SpeedMPH,Gust SpeedMPH,PrecipitationIn,Events,Conditions,WindDirDegrees,DateUTC
12:50 AM,14.0,10.4,86,29.56,6.2,North,17.3,-,N/A,,Overcast,10,2013-01-08 22:50:00
1:50 AM,14.0,12.2,93,29.56,4.3,NNE,18.4,-,N/A,Snow,Light Snow,20,2013-01-08 23:50:00
2:00 AM,21,12,56,,9,ENE,3.5,,,,Mostly Cloudy,60,2013-01-09 00:00:00
2:50 AM,14.0,10.4,86,29.56,4.3,NNE,19.6,-,N/A,Snow,Snow,20,2013-01-09 00:50:00
3:50 AM,14.0,10.4,86,29.56,4.3,NNE,19.6,-,N/A,Snow,Light Snow,20,2013-01-09 01:50:00
4:50 AM,14.0,10.4,86,29.56,4.3,North,21.9,-,N/A,Snow,Light Snow,10,2013-01-09 02:50:00
5:50 AM,15.8,10.4,79,29.59,6.2,North,16.1,-,N/A,,Overcast,10,2013-01-09 03:50:00
6:50 AM,14.0,12.2,93,29.59,3.7,North,16.1,-,N/A,Snow,Blowing Snow,350,2013-01-09 04:50:00
7:50 AM,14.0,12.2,93,29.62,0.7,North,15.0,-,N/A,Snow,Light Snow,360,2013-01-09 05:50:00
8:00 AM,22,13,56,,9,North,3.5,,,,Overcast,10,2013-01-09 06:00:00
8:50 AM,15.8,12.2,86,29.62,1.0,North,17.3,-,N/A,Snow,Light Snow,360,2013-01-09 06:50:00
9:50 AM,15.8,12.2,86,29.65,0.6,North,17.3,-,N/A,Snow,Light Snow,350,2013-01-09 07:50:00
10:50 AM,15.8,14.0,93,29.65,-9999.0,North,16.1,-,N/A,Snow,Blowing Snow,360,2013-01-09 08:50:00
11:50 AM,15.8,14.0,93,29.65,1.9,North,21.9,-,N/A,Snow,Blowing Snow,350,2013-01-09 09:50:00
12:50 PM,15.8,12.2,86,29.65,-9999.0,NNW,19.6,-,N/A,Snow,Blowing Snow,340,2013-01-09 10:50:00
1:50 PM,15.8,12.2,86,29.65,4.3,NNW,13.8,-,N/A,Snow,Blowing Snow,340,2013-01-09 11:50:00
2:00 PM,23,13,52,,9,North,4.6,,,,Partly Cloudy,350,2013-01-09 12:00:00
2:50 PM,15.8,12.2,86,29.68,3.7,NNW,15.0,-,N/A,Snow,Blowing Snow,340,2013-01-09 12:50:00
3:50 PM,15.8,12.2,86,29.68,3.1,NNW,16.1,-,N/A,Snow,Blowing Snow,330,2013-01-09 13:50:00
4:50 PM,14.0,12.2,93,29.68,4.3,NNW,13.8,-,N/A,Snow,Blowing Snow,340,2013-01-09 14:50:00
5:50 PM,14.0,12.2,93,29.71,4.3,NNW,16.1,-,N/A,Snow,Blowing Snow,330,2013-01-09 15:50:00
6:50 PM,15.8,12.2,86,29.71,4.3,NNW,15.0,-,N/A,Snow,Blowing Snow,330,2013-01-09 16:50:00
7:50 PM,12.2,10.4,92,29.74,6.2,West,4.6,-,N/A,,Mostly Cloudy,280,2013-01-09 17:50:00
8:00 PM,20,13,64,,9,WNW,1.2,,,,Mostly Cloudy,300,2013-01-09 18:00:00
8:50 PM,12.2,10.4,92,29.74,6.2,WNW,10.4,-,N/A,,Mostly Cloudy,300,2013-01-09 18:50:00
9:50 PM,12.2,10.4,92,29.74,6.2,NW,8.1,-,N/A,Snow,Light Snow,310,2013-01-09 19:50:00
10:50 PM,14.0,10.4,86,29.74,6.2,West,5.8,-,N/A,Snow,Light Snow,280,2013-01-09 20:50:00
11:50 PM,12.2,10.4,92,29.74,6.2,West,11.5,-,N/A,Snow,Light Snow,280,2013-01-09 21:50:00